FREGAT DEB, 45889

Orbit data source: Space-Track

FREGAT DEB, 45889 is space debris in LEO originally from a launch on Mon, 18 Jul 2011 UTC launched from the Tyuratam Missile And Space Complex (TTMTR). Debris objects in space refer to the collection of defunct objects orbiting the Earth. Examples of debris include non-operational satellites, rocket bodies, and fragments generated from explosions, collisions, or faulty payload assembly.

Loading next visibility...
Identifier
45889, 2011-037DJ
Orbit
LEO
Country
Flag of CISCIS
Related business
Manufacturer
Lavochkin
Mission
Spacecraft
Bus & Motor
Unknown
Mass
Unknown
Launch date (UTC)
2011-07-18 (14 years ago)
Launch vehicle
Unknown
Launch site
Tyuratam Missile And Space Complex (TTMTR)
Object type
Payload
Rocket body
Debris
Shape & HBR
Unknown
Radar Cross Section
Small (<0.1 m²)

Expand to show TLE details & history
Last TLE update: 22 hours ago

TLE from 22 hours ago
0 FREGAT DEB
1 45889U 11037DJ  25260.46469139  .00126954  00000-0  13570-1 0  9997
2 45889  51.3404 329.9088 0830827 210.4669 144.5370 13.60876957225227
Epoch: 2025-09-17T11:09Z
TLE epoch observation values (Epoch: 2025-09-17T11:09:09.336Z)
Latitude
0.00002°
Longitude
165.97965°
Altitude
1,550.193 km
Speed
6.841 km/s
True Right ascension
21h 59m 38s
True Declination
0° 00' 00"
Sunlit
Object was in full shadow at epoch
Visualization orbit readout
Latitude
Unknown
Longitude
Unknown
Altitude
Unknown
Speed
Unknown
Apparent Right ascension
Unknown
Apparent Declination
Unknown
Sunlit
N/A
Visualization observer readout
Local Sidereal Time
01:36:16
Azimuth
Unknown
Elevation
Unknown
Doppler factor
Unknown
Orbital elements
Apogee altitude
1,648.763 km
Perigee altitude
417.285 km
Semi-major axis
7,411.161 km
Eccentricity
0.08308
Inclination
51.3404°
RAAN
329.9088°
Arg. of periapsis
210.4669°
True anomaly
149.62204°
Mean anomaly
144.537°
Eccentric anomaly
147.12119°
Mean motion
3.40184 °/min
Orbital period
105.83 mins
BSTAR
0.01357
Loading maneuver chart data...
Computing Atmospheric mass density...
Loading historical data...
Loading historical data...
Loading historical data...
Loading historical data...
Loading historical data...
Loading historical data...
Loading historical data...

Documentation

Showing up to 5 results
|